CCA1025 ZLXN-ZPPP

Flight info

Callsign CCA1025
Flight time 2h 4m
Altitude 33100
Route UPVOP W111 BIGUX B330 UBKER G212 NIXAS
Aircraft B738/L-VGDW/C

Departure

Time 2026-05-09 10:44
Airport Xining Caojiabao International Airport (ZLXN)

Arrival

Time 2026-05-09 12:48
Airport Kunming Changshui International Airport (ZPPP)
Time Latitude Longitude Altitude Speed Heading
2026-05-09 10:28 36.52665 102.04106 7164 ft 0 kts 199°
2026-05-09 10:34 36.52678 102.04112 7164 ft 2 kts 199°
2026-05-09 10:35 36.52692 102.04118 7164 ft 2 kts 199°
2026-05-09 10:35 36.52701 102.04121 7164 ft 2 kts 196°
2026-05-09 10:35 36.52716 102.04120 7164 ft 2 kts 153°
2026-05-09 10:35 36.52727 102.04108 7164 ft 2 kts 119°
2026-05-09 10:36 36.52730 102.04101 7164 ft 1 kts 104°
2026-05-09 10:36 36.52731 102.04095 7164 ft 0 kts 108°
2026-05-09 10:38 36.52725 102.04119 7164 ft 8 kts 109°
2026-05-09 10:39 36.52705 102.04186 7164 ft 7 kts 110°
2026-05-09 10:39 36.52692 102.04236 7164 ft 4 kts 108°
2026-05-09 10:39 36.52678 102.04298 7164 ft 11 kts 93°
2026-05-09 10:39 36.52729 102.04377 7164 ft 9 kts 64°
2026-05-09 10:40 36.52720 102.04452 7164 ft 7 kts 103°
2026-05-09 10:40 36.52703 102.04521 7163 ft 12 kts 111°
2026-05-09 10:40 36.52658 102.04671 7163 ft 23 kts 110°
2026-05-09 10:40 36.52601 102.04855 7163 ft 20 kts 109°
2026-05-09 10:41 36.52563 102.05003 7163 ft 16 kts 108°
2026-05-09 10:41 36.52529 102.05122 7163 ft 13 kts 111°
2026-05-09 10:41 36.52486 102.05281 7163 ft 25 kts 110°
2026-05-09 10:41 36.52420 102.05527 7162 ft 29 kts 108°
2026-05-09 10:42 36.52362 102.05738 7162 ft 13 kts 109°
2026-05-09 10:42 36.52359 102.05750 7162 ft 3 kts 109°
2026-05-09 10:42 36.52335 102.05836 7162 ft 14 kts 105°
2026-05-09 10:42 36.52372 102.05913 7162 ft 10 kts 19°
2026-05-09 10:43 36.52434 102.05935 7162 ft 8 kts 15°
2026-05-09 10:43 36.52474 102.05920 7162 ft 5 kts 303°
2026-05-09 10:43 36.52495 102.05872 7162 ft 11 kts 294°
2026-05-09 10:43 36.52564 102.05627 7163 ft 68 kts 287°
2026-05-09 10:44 36.52817 102.04718 7165 ft 150 kts 289°
2026-05-09 10:44 36.53213 102.03236 7346 ft 199 kts 287°
2026-05-09 10:44 36.53547 102.01676 8420 ft 189 kts 282°
2026-05-09 10:44 36.53945 102.00064 9167 ft 204 kts 292°
2026-05-09 10:45 36.54621 101.98575 9985 ft 212 kts 303°
2026-05-09 10:46 36.60354 101.94049 12180 ft 313 kts 20°
2026-05-09 10:46 36.62015 101.95632 13278 ft 309 kts 58°
2026-05-09 10:46 36.62693 101.97623 13805 ft 322 kts 79°
2026-05-09 10:46 36.62622 102.00349 14208 ft 346 kts 105°
2026-05-09 10:47 36.61608 102.03149 14794 ft 363 kts 116°
2026-05-09 10:47 36.60637 102.06026 15561 ft 371 kts 108°
2026-05-09 10:47 36.59831 102.09126 16355 ft 380 kts 107°
2026-05-09 10:47 36.59006 102.12228 17184 ft 386 kts 107°
2026-05-09 10:48 36.58138 102.15408 18044 ft 390 kts 107°
2026-05-09 10:48 36.57262 102.18600 18763 ft 398 kts 107°
2026-05-09 10:48 36.56351 102.21902 19488 ft 405 kts 108°
2026-05-09 10:48 36.55432 102.25197 20154 ft 412 kts 108°
2026-05-09 10:49 36.54485 102.28580 20872 ft 417 kts 108°
2026-05-09 10:49 36.53529 102.32014 21492 ft 425 kts 109°
2026-05-09 10:49 36.52576 102.35499 22108 ft 431 kts 107°
2026-05-09 10:49 36.51731 102.39111 22729 ft 437 kts 105°
2026-05-09 10:50 36.50934 102.42725 23267 ft 444 kts 105°
2026-05-09 10:50 36.50083 102.46469 23840 ft 451 kts 106°
2026-05-09 10:50 36.49208 102.50219 24454 ft 455 kts 107°
2026-05-09 10:50 36.48306 102.53982 24937 ft 461 kts 107°
2026-05-09 10:51 36.47365 102.57819 25443 ft 467 kts 108°
2026-05-09 10:51 36.46428 102.61677 25901 ft 473 kts 107°
2026-05-09 10:51 36.45548 102.65662 26348 ft 479 kts 104°
2026-05-09 10:51 36.44944 102.69724 26779 ft 485 kts 99°
2026-05-09 10:52 36.44451 102.73882 27136 ft 491 kts 99°
2026-05-09 10:52 36.43957 102.78050 27586 ft 494 kts 99°
2026-05-09 10:52 36.43446 102.82328 27950 ft 500 kts 100°
2026-05-09 10:52 36.42923 102.86598 28311 ft 505 kts 101°
2026-05-09 10:53 36.42336 102.90907 28743 ft 508 kts 102°
2026-05-09 10:53 36.41684 102.95200 29140 ft 511 kts 103°
2026-05-09 10:53 36.41010 102.99535 29675 ft 512 kts 103°
2026-05-09 10:53 36.40338 103.03835 30272 ft 511 kts 103°
2026-05-09 10:54 36.39650 103.08193 30724 ft 513 kts 103°
2026-05-09 10:54 36.38966 103.12481 31244 ft 514 kts 103°
2026-05-09 10:54 36.38274 103.16896 31798 ft 514 kts 103°
2026-05-09 10:54 36.37607 103.21239 32399 ft 512 kts 103°
2026-05-09 10:55 36.36946 103.25555 32963 ft 511 kts 103°
2026-05-09 10:55 36.36284 103.29891 33400 ft 512 kts 103°
2026-05-09 10:55 36.35635 103.34214 33480 ft 512 kts 102°
2026-05-09 10:56 36.34342 103.42794 33438 ft 500 kts 103°
2026-05-09 10:56 36.33030 103.51213 33426 ft 499 kts 103°
2026-05-09 10:57 36.31706 103.59644 33419 ft 502 kts 103°
2026-05-09 10:57 36.30350 103.68145 33415 ft 503 kts 104°
2026-05-09 10:58 36.28998 103.76619 33412 ft 501 kts 103°
2026-05-09 10:58 36.27654 103.85075 33407 ft 500 kts 103°
2026-05-09 10:59 36.26316 103.93501 33401 ft 503 kts 103°
2026-05-09 10:59 36.24959 104.02056 33395 ft 507 kts 103°
2026-05-09 11:00 36.23591 104.10583 33398 ft 505 kts 103°
2026-05-09 11:00 36.22093 104.18988 33397 ft 503 kts 108°
2026-05-09 11:00 36.20866 104.23013 33395 ft 498 kts 120°
2026-05-09 11:01 36.18932 104.26518 33407 ft 491 kts 138°
2026-05-09 11:01 36.13695 104.31683 33406 ft 478 kts 153°
2026-05-09 11:01 36.10798 104.33597 33399 ft 466 kts 164°
2026-05-09 11:02 36.07718 104.34576 33405 ft 452 kts 180°
2026-05-09 11:02 36.01491 104.34718 33405 ft 449 kts 185°
2026-05-09 11:03 35.95236 104.34931 33402 ft 448 kts 184°
2026-05-09 11:03 35.89052 104.35113 33407 ft 444 kts 185°
2026-05-09 11:04 35.83461 104.35240 33414 ft 447 kts 185°
2026-05-09 11:04 35.77749 104.35344 33408 ft 449 kts 185°
2026-05-09 11:05 35.71501 104.35463 33416 ft 446 kts 185°
2026-05-09 11:05 35.65257 104.35555 33418 ft 450 kts 186°
2026-05-09 11:06 35.58987 104.35653 33431 ft 447 kts 185°
2026-05-09 11:06 35.52795 104.35757 33440 ft 446 kts 185°
2026-05-09 11:07 35.46525 104.35870 33437 ft 446 kts 185°
2026-05-09 11:07 35.40307 104.35963 33454 ft 445 kts 185°
2026-05-09 11:08 35.34108 104.36049 33467 ft 447 kts 185°
2026-05-09 11:08 35.27878 104.36143 33477 ft 449 kts 185°
2026-05-09 11:09 35.21618 104.36240 33485 ft 450 kts 185°
2026-05-09 11:09 35.15386 104.36348 33476 ft 448 kts 185°
2026-05-09 11:10 35.09116 104.36441 33485 ft 449 kts 185°
2026-05-09 11:10 35.02829 104.36545 33488 ft 449 kts 185°
2026-05-09 11:11 34.96584 104.36646 33494 ft 448 kts 185°
2026-05-09 11:11 34.90357 104.36741 33496 ft 448 kts 185°
2026-05-09 11:12 34.84118 104.36854 33489 ft 445 kts 185°
2026-05-09 11:12 34.77883 104.36968 33487 ft 444 kts 186°
2026-05-09 11:13 34.71697 104.37068 33484 ft 443 kts 185°
2026-05-09 11:13 34.65534 104.37164 33484 ft 445 kts 186°
2026-05-09 11:14 34.59298 104.37257 33481 ft 446 kts 186°
2026-05-09 11:14 34.53121 104.37350 33473 ft 441 kts 186°
2026-05-09 11:15 34.47003 104.37453 33483 ft 440 kts 186°
2026-05-09 11:15 34.40846 104.37547 33474 ft 445 kts 186°
2026-05-09 11:16 34.34637 104.37644 33470 ft 444 kts 186°
2026-05-09 11:16 34.28497 104.37734 33472 ft 444 kts 186°
2026-05-09 11:17 34.22311 104.37833 33472 ft 442 kts 186°
2026-05-09 11:17 34.16164 104.37946 33474 ft 440 kts 187°
2026-05-09 11:18 34.10055 104.38037 33470 ft 440 kts 187°
2026-05-09 11:18 34.03923 104.38135 33472 ft 441 kts 187°
2026-05-09 11:19 33.97765 104.38241 33474 ft 438 kts 187°
2026-05-09 11:19 33.91704 104.38348 33480 ft 437 kts 187°
2026-05-09 11:20 33.85558 104.38425 33470 ft 442 kts 187°
2026-05-09 11:20 33.79435 104.38501 33496 ft 438 kts 187°
2026-05-09 11:21 33.73363 104.38599 33512 ft 435 kts 187°
2026-05-09 11:21 33.67264 104.38694 33504 ft 439 kts 187°
2026-05-09 11:22 33.61143 104.39282 33511 ft 449 kts 175°
2026-05-09 11:22 33.58133 104.40551 33495 ft 464 kts 161°
2026-05-09 11:22 33.55280 104.42494 33504 ft 470 kts 156°
2026-05-09 11:23 33.49650 104.46487 33494 ft 470 kts 157°
2026-05-09 11:23 33.44000 104.50452 33472 ft 469 kts 157°
2026-05-09 11:24 33.38221 104.53959 33491 ft 458 kts 168°
2026-05-09 11:24 33.35214 104.54887 33498 ft 444 kts 180°
2026-05-09 11:24 33.32151 104.55197 33489 ft 440 kts 185°
2026-05-09 11:25 33.26017 104.55593 33503 ft 437 kts 184°
2026-05-09 11:25 33.19922 104.56039 33484 ft 436 kts 184°
2026-05-09 11:26 33.13853 104.56449 33493 ft 439 kts 184°
2026-05-09 11:26 33.07746 104.56851 33484 ft 437 kts 184°
2026-05-09 11:27 33.01712 104.57260 33459 ft 435 kts 184°
2026-05-09 11:27 32.95656 104.57635 33450 ft 436 kts 184°
2026-05-09 11:28 32.89588 104.58033 33456 ft 434 kts 184°
2026-05-09 11:28 32.83514 104.58419 33471 ft 438 kts 184°
2026-05-09 11:29 32.77402 104.58792 33440 ft 439 kts 184°
2026-05-09 11:29 32.71288 104.59112 33427 ft 437 kts 185°
2026-05-09 11:30 32.65190 104.59370 33431 ft 435 kts 185°
2026-05-09 11:30 32.59113 104.59636 33429 ft 439 kts 185°
2026-05-09 11:31 32.52991 104.59904 33423 ft 439 kts 185°
2026-05-09 11:31 32.46904 104.60180 33419 ft 439 kts 185°
2026-05-09 11:32 32.40738 104.60465 33392 ft 439 kts 184°
2026-05-09 11:32 32.34654 104.60789 33369 ft 440 kts 184°
2026-05-09 11:33 32.28482 104.61129 33327 ft 443 kts 184°
2026-05-09 11:33 32.19227 104.61626 33294 ft 442 kts 184°
2026-05-09 11:34 32.13106 104.61968 33306 ft 440 kts 184°
2026-05-09 11:34 32.06954 104.62295 33297 ft 442 kts 184°
2026-05-09 11:35 32.00815 104.62630 33304 ft 440 kts 184°
2026-05-09 11:35 31.94680 104.62957 33294 ft 445 kts 184°
2026-05-09 11:36 31.88449 104.63291 33288 ft 445 kts 184°
2026-05-09 11:36 31.82244 104.63639 33254 ft 441 kts 184°
2026-05-09 11:37 31.76101 104.63959 33240 ft 443 kts 184°
2026-05-09 11:37 31.69912 104.64201 33216 ft 442 kts 184°
2026-05-09 11:38 31.63708 104.64442 33192 ft 445 kts 184°
2026-05-09 11:38 31.57491 104.64686 33190 ft 447 kts 184°
2026-05-09 11:39 31.51251 104.64939 33179 ft 445 kts 184°
2026-05-09 11:40 31.42082 104.65302 33153 ft 443 kts 185°
2026-05-09 11:40 31.35895 104.65541 33151 ft 445 kts 185°
2026-05-09 11:41 31.29693 104.65792 33139 ft 443 kts 185°
2026-05-09 11:41 31.23522 104.66040 33131 ft 442 kts 185°
2026-05-09 11:42 31.17325 104.66275 33133 ft 446 kts 185°
2026-05-09 11:42 31.11182 104.66071 33129 ft 436 kts 197°
2026-05-09 11:43 31.05474 104.64016 33119 ft 421 kts 213°
2026-05-09 11:43 31.00849 104.60003 33120 ft 411 kts 227°
2026-05-09 11:45 30.96670 104.53924 33225 ft 408 kts 237°
2026-05-09 11:45 30.93266 104.48628 33226 ft 409 kts 236°
2026-05-09 11:46 30.89911 104.43427 33231 ft 407 kts 236°
2026-05-09 11:46 30.85989 104.38707 33180 ft 411 kts 221°
2026-05-09 11:47 30.80745 104.35807 33152 ft 419 kts 211°
2026-05-09 11:47 30.75394 104.33017 33151 ft 420 kts 212°
2026-05-09 11:48 30.70060 104.30229 33143 ft 419 kts 212°
2026-05-09 11:48 30.64753 104.27458 33150 ft 417 kts 212°
2026-05-09 11:49 30.59450 104.24703 33143 ft 416 kts 212°
2026-05-09 11:49 30.54212 104.21815 33131 ft 421 kts 212°
2026-05-09 11:50 30.48545 104.19746 33131 ft 435 kts 197°
2026-05-09 11:50 30.42551 104.18888 33147 ft 431 kts 196°
2026-05-09 11:51 30.36579 104.17961 33138 ft 435 kts 197°
2026-05-09 11:51 30.30586 104.17053 33148 ft 433 kts 196°
2026-05-09 11:52 30.24630 104.16165 33143 ft 433 kts 196°
2026-05-09 11:52 30.18599 104.15242 33137 ft 435 kts 196°
2026-05-09 11:53 30.12632 104.14361 33126 ft 433 kts 196°
2026-05-09 11:53 30.06653 104.13477 33140 ft 432 kts 197°
2026-05-09 11:54 30.00660 104.12579 33143 ft 435 kts 197°
2026-05-09 11:54 29.94640 104.11689 33139 ft 432 kts 197°
2026-05-09 11:55 29.88725 104.10815 33150 ft 429 kts 197°
2026-05-09 11:56 29.70830 104.08172 33158 ft 433 kts 197°
2026-05-09 11:57 29.64844 104.07285 33163 ft 434 kts 197°
2026-05-09 11:57 29.58811 104.06408 33166 ft 432 kts 198°
2026-05-09 11:58 29.52811 104.05522 33158 ft 430 kts 197°
2026-05-09 11:58 29.46875 104.04654 33144 ft 428 kts 198°
2026-05-09 11:59 29.40952 104.03748 33145 ft 428 kts 198°
2026-05-09 11:59 29.34898 104.03500 33163 ft 441 kts 189°
2026-05-09 12:00 29.28763 104.03602 33146 ft 439 kts 190°
2026-05-09 12:00 29.22614 104.03691 33149 ft 441 kts 190°
2026-05-09 12:01 29.16501 104.03770 33144 ft 440 kts 191°
2026-05-09 12:01 29.10347 104.03855 33146 ft 442 kts 191°
2026-05-09 12:02 29.04188 104.03944 33145 ft 441 kts 191°
2026-05-09 12:02 28.98033 104.04028 33161 ft 440 kts 191°
2026-05-09 12:03 28.91882 104.04107 33179 ft 442 kts 191°
2026-05-09 12:03 28.85708 104.04190 33207 ft 441 kts 190°
2026-05-09 12:04 28.79581 104.04280 33232 ft 438 kts 191°
2026-05-09 12:04 28.73414 104.04362 33258 ft 441 kts 190°
2026-05-09 12:05 28.67239 104.04449 33252 ft 439 kts 190°
2026-05-09 12:05 28.61180 104.04400 33254 ft 426 kts 198°
2026-05-09 12:06 28.55570 104.02690 33256 ft 413 kts 209°
2026-05-09 12:06 28.52999 104.01340 33267 ft 401 kts 219°
2026-05-09 12:06 28.50609 103.99682 33276 ft 398 kts 220°
2026-05-09 12:07 28.45908 103.96401 33274 ft 396 kts 220°
2026-05-09 12:07 28.41178 103.93108 33296 ft 400 kts 220°
2026-05-09 12:08 28.36425 103.89774 33313 ft 402 kts 220°
2026-05-09 12:08 28.31697 103.86453 33283 ft 397 kts 220°
2026-05-09 12:09 28.26976 103.83137 33304 ft 397 kts 220°
2026-05-09 12:09 28.22257 103.79825 33307 ft 399 kts 220°
2026-05-09 12:10 28.12797 103.73201 33337 ft 401 kts 220°
2026-05-09 12:11 28.08032 103.69858 33329 ft 402 kts 220°
2026-05-09 12:11 28.03317 103.66563 33340 ft 398 kts 220°
2026-05-09 12:12 27.98586 103.63254 33341 ft 400 kts 220°
2026-05-09 12:12 27.93876 103.59963 33357 ft 397 kts 220°
2026-05-09 12:13 27.89145 103.56666 33356 ft 400 kts 220°
2026-05-09 12:13 27.84389 103.53355 33375 ft 400 kts 219°
2026-05-09 12:14 27.79664 103.50067 33387 ft 400 kts 220°
2026-05-09 12:14 27.74925 103.46769 33401 ft 400 kts 220°
2026-05-09 12:15 27.70123 103.43440 33413 ft 403 kts 220°
2026-05-09 12:15 27.65349 103.40118 33403 ft 402 kts 220°
2026-05-09 12:16 27.60591 103.36829 33411 ft 400 kts 220°
2026-05-09 12:16 27.55833 103.33530 33410 ft 402 kts 219°
2026-05-09 12:17 27.51033 103.30205 33411 ft 402 kts 219°
2026-05-09 12:17 27.46344 103.26893 33404 ft 400 kts 219°
2026-05-09 12:18 27.41140 103.24290 33409 ft 414 kts 209°
2026-05-09 12:18 27.35753 103.21900 33406 ft 416 kts 210°
2026-05-09 12:19 27.30391 103.19509 33401 ft 414 kts 210°
2026-05-09 12:19 27.25050 103.17139 33403 ft 412 kts 210°
2026-05-09 12:20 27.19703 103.14765 33406 ft 412 kts 210°
2026-05-09 12:20 27.14359 103.12410 33424 ft 412 kts 210°
2026-05-09 12:21 27.08993 103.10037 33448 ft 415 kts 210°
2026-05-09 12:21 27.03624 103.07664 33472 ft 413 kts 210°
2026-05-09 12:22 26.98263 103.05303 33500 ft 413 kts 210°
2026-05-09 12:22 26.92898 103.02940 33467 ft 414 kts 210°
2026-05-09 12:23 26.87552 103.00591 33419 ft 414 kts 210°
2026-05-09 12:23 26.82181 102.98231 33394 ft 413 kts 210°
2026-05-09 12:24 26.76782 102.95857 33378 ft 414 kts 210°
2026-05-09 12:24 26.71425 102.93501 33373 ft 417 kts 209°
2026-05-09 12:25 26.65998 102.91122 33389 ft 414 kts 209°
2026-05-09 12:25 26.60611 102.88762 33401 ft 414 kts 209°
2026-05-09 12:26 26.55216 102.86403 33421 ft 414 kts 209°
2026-05-09 12:26 26.49850 102.84069 33465 ft 413 kts 209°
2026-05-09 12:27 26.44452 102.81716 33481 ft 417 kts 209°
2026-05-09 12:27 26.39065 102.79359 33464 ft 413 kts 209°
2026-05-09 12:28 26.33687 102.77015 33208 ft 408 kts 209°
2026-05-09 12:28 26.31074 102.75876 32449 ft 405 kts 209°
2026-05-09 12:28 26.28446 102.74720 31724 ft 403 kts 208°
2026-05-09 12:28 26.25744 102.73790 31121 ft 412 kts 200°
2026-05-09 12:29 26.22894 102.73480 30544 ft 419 kts 187°
2026-05-09 12:29 26.19961 102.73734 29955 ft 417 kts 182°
2026-05-09 12:29 26.17102 102.74274 29361 ft 417 kts 175°
2026-05-09 12:29 26.14390 102.75324 28520 ft 430 kts 162°
2026-05-09 12:30 26.11794 102.77112 27814 ft 435 kts 153°
2026-05-09 12:30 26.09359 102.79152 27233 ft 432 kts 148°
2026-05-09 12:30 26.05359 102.84224 26016 ft 439 kts 133°
2026-05-09 12:31 26.03518 102.86978 25405 ft 442 kts 133°
2026-05-09 12:31 25.99877 102.92355 24175 ft 430 kts 133°
2026-05-09 12:31 25.98097 102.94988 23572 ft 424 kts 133°
2026-05-09 12:32 25.96318 102.97617 22979 ft 419 kts 132°
2026-05-09 12:32 25.94555 103.00223 22386 ft 415 kts 132°
2026-05-09 12:32 25.92837 103.02769 21791 ft 411 kts 131°
2026-05-09 12:32 25.91121 103.05312 21174 ft 408 kts 131°
2026-05-09 12:33 25.89425 103.07829 20705 ft 400 kts 131°
2026-05-09 12:33 25.87776 103.10278 20477 ft 400 kts 131°
2026-05-09 12:33 25.86058 103.12821 20315 ft 409 kts 131°
2026-05-09 12:33 25.84393 103.15297 19964 ft 399 kts 130°
2026-05-09 12:34 25.82727 103.17770 19229 ft 400 kts 130°
2026-05-09 12:34 25.81067 103.20224 18749 ft 393 kts 130°
2026-05-09 12:34 25.79442 103.22639 18191 ft 389 kts 129°
2026-05-09 12:34 25.77793 103.25006 17846 ft 376 kts 134°
2026-05-09 12:35 25.75964 103.26914 17693 ft 353 kts 150°
2026-05-09 12:35 25.73764 103.27895 17487 ft 327 kts 178°
2026-05-09 12:35 25.71591 103.27759 17142 ft 311 kts 197°
2026-05-09 12:35 25.69517 103.27145 16753 ft 303 kts 205°
2026-05-09 12:36 25.67696 103.26048 16383 ft 292 kts 221°
2026-05-09 12:36 25.66158 103.24623 16037 ft 287 kts 224°
2026-05-09 12:36 25.64609 103.23236 15700 ft 283 kts 222°
2026-05-09 12:36 25.63096 103.21916 15382 ft 279 kts 222°
2026-05-09 12:37 25.61564 103.20573 15028 ft 273 kts 222°
2026-05-09 12:37 25.60080 103.19270 14697 ft 265 kts 221°
2026-05-09 12:37 25.58653 103.18015 14390 ft 259 kts 221°
2026-05-09 12:37 25.57268 103.16801 14088 ft 253 kts 221°
2026-05-09 12:38 25.55905 103.15604 13783 ft 248 kts 221°
2026-05-09 12:38 25.54548 103.14417 13480 ft 243 kts 221°
2026-05-09 12:38 25.53245 103.13277 13195 ft 238 kts 221°
2026-05-09 12:38 25.51949 103.12141 12925 ft 233 kts 220°
2026-05-09 12:39 25.50697 103.11043 12784 ft 223 kts 220°
2026-05-09 12:39 25.49472 103.10074 12707 ft 213 kts 209°
2026-05-09 12:39 25.47992 103.09710 12504 ft 222 kts 178°
2026-05-09 12:39 25.46477 103.10007 12255 ft 222 kts 172°
2026-05-09 12:40 25.44950 103.10278 12001 ft 219 kts 174°
2026-05-09 12:40 25.43452 103.10531 11762 ft 217 kts 173°
2026-05-09 12:40 25.41965 103.10790 11522 ft 216 kts 173°
2026-05-09 12:40 25.40475 103.11050 11280 ft 215 kts 173°
2026-05-09 12:41 25.39011 103.11304 11090 ft 211 kts 172°
2026-05-09 12:41 25.37559 103.11557 11031 ft 208 kts 172°
2026-05-09 12:41 25.36137 103.11810 10964 ft 203 kts 172°
2026-05-09 12:41 25.34762 103.12048 10897 ft 199 kts 175°
2026-05-09 12:42 25.33387 103.11884 10820 ft 197 kts 206°
2026-05-09 12:42 25.32312 103.10983 10838 ft 195 kts 222°
2026-05-09 12:42 25.31259 103.10036 10830 ft 195 kts 218°
2026-05-09 12:42 25.30197 103.09125 10840 ft 195 kts 219°
2026-05-09 12:43 25.29135 103.08204 10830 ft 183 kts 219°
2026-05-09 12:43 25.28127 103.07325 10733 ft 189 kts 219°
2026-05-09 12:43 25.27091 103.06421 10417 ft 183 kts 219°
2026-05-09 12:43 25.26097 103.05542 10180 ft 183 kts 218°
2026-05-09 12:44 25.25110 103.04679 9948 ft 181 kts 218°
2026-05-09 12:44 25.24151 103.03843 9700 ft 170 kts 218°
2026-05-09 12:44 25.23224 103.03040 9471 ft 168 kts 217°
2026-05-09 12:44 25.22307 103.02241 9257 ft 166 kts 218°
2026-05-09 12:45 25.21400 103.01461 9040 ft 165 kts 218°
2026-05-09 12:45 25.20503 103.00683 8828 ft 164 kts 219°
2026-05-09 12:45 25.19630 102.99911 8627 ft 156 kts 219°
2026-05-09 12:45 25.18785 102.99171 8414 ft 155 kts 219°
2026-05-09 12:46 25.17935 102.98430 8205 ft 154 kts 219°
2026-05-09 12:46 25.17078 102.97694 7999 ft 155 kts 219°
2026-05-09 12:46 25.16240 102.96956 7795 ft 155 kts 219°
2026-05-09 12:46 25.15395 102.96210 7586 ft 153 kts 219°
2026-05-09 12:47 25.14559 102.95487 7391 ft 153 kts 217°
2026-05-09 12:47 25.13716 102.94752 7171 ft 152 kts 220°
2026-05-09 12:47 25.12895 102.94030 6999 ft 153 kts 219°
2026-05-09 12:47 25.12062 102.93301 6918 ft 153 kts 218°
2026-05-09 12:48 25.11229 102.92577 6916 ft 151 kts 220°
2026-05-09 12:48 25.10446 102.91889 6915 ft 121 kts 218°
2026-05-09 12:48 25.10062 102.91541 6915 ft 36 kts 221°